Location: Arroyo Milagro
(34.2103°N, 106.7700°W)
Time: 00:02:36
(UTC+00:00)

Daily predictions for brighter satellites

Satellite Brightness Start Highest point End
(mag) Time Altitude Azimuth Time Altitude Azimuth Time Altitude Azimuth
Cosmos 1844 Rocket 3.3 00:22:12 10° SSW 00:27:40 61° WNW 00:33:11 10° NNE
UNK 4.4 00:27:13 10° N 00:31:45 62° WNW 00:36:17 10° SSW
Aureole 3 4.4 00:29:43 10° NNW 00:33:00 40° W 00:35:54 10° SSW
Cosmos 2100 Rocket 4.1 00:28:28 10° S 00:34:43 88° W 00:40:56 10° N
SKYMED 2 4.4 00:31:00 10° NE 00:34:49 29° E 00:38:36 10° SSE
COSMO-SKYMED 1 3.8 00:32:43 10° NE 00:35:45 20° E 00:38:48 10° SE
Cosmos 1908 Rocket 3.8 00:32:08 10° SSE 00:36:21 50° E 00:40:37 10° NNE
SMAP 3.0 00:33:09 10° SSE 00:37:46 77° ENE 00:42:26 10° N
Cosmos 1867 4.2 00:36:00 10° SW 00:41:20 59° WNW 00:46:44 10° NNE
Cosmos 1300 Rocket 4.4 00:37:42 10° SSE 00:41:30 29° E 00:45:20 10° NNE
Delta 2 Rocket 3.2 00:40:54 10° WSW 00:44:56 83° SSE 00:48:35 12° E
Iridium 4 Rocket 3.8 00:40:23 10° S 00:46:02 82° W 00:51:21 10° N
VEP-3 4.2 00:38:03 10° WSW 00:49:10 40° S 00:54:26 10° ESE
Cosmos 1441 Rocket 4.3 00:47:25 10° NNE 00:49:42 17° ENE 00:51:58 10° ESE
Cosmos 2221 Rocket 3.8 00:45:41 10° N 00:50:02 48° E 00:54:21 10° SSE
Landsat 7 3.7 00:48:00 10° SSE 00:52:37 76° ENE 00:57:16 10° N
IRS-1C 4.1 00:47:21 10° SSE 00:52:40 88° ENE 00:58:00 10° NNW
Cosmos 1603 3.7 00:48:17 10° NNW 00:53:57 67° ENE 00:59:32 10° SSE
CZ-2D R/B 3.1 00:55:17 10° S 00:58:26 68° WSW 01:01:36 10° NNW
Cosmos 1943 4.3 00:54:31 10° NNW 00:59:54 48° WSW 01:05:16 10° S
Cosmos 1340 Rocket 4.4 00:58:02 10° SSW 01:01:35 36° WNW 01:05:11 10° N
Cosmos 1302 Rocket 3.9 00:56:58 10° NNW 01:02:12 84° ENE 01:07:25 10° SSE
Cosmos 2084 Rocket 4.4 00:58:42 10° S 01:02:12 27° ESE 01:04:21 18° ENE
AQUARIUS 4.0 00:58:34 10° SSE 01:02:58 81° ENE 01:07:23 10° N
Cosmos 1725 Rocket 4.1 01:00:03 10° S 01:06:16 82° W 01:12:33 10° N
PSLV R/B 4.1 01:09:51 10° SE 01:13:30 32° ENE 01:17:08 10° N
Helios 1A Rocket 2.3 01:14:06 10° NNE 01:17:29 87° ESE 01:20:51 10° SSW
Cosmos 2233 Rocket 3.9 01:11:27 10° S 01:17:39 82° E 01:23:59 10° N
NOSS 3-4 (A) 4.2 01:11:48 10° NNW 01:18:38 47° NE 01:26:30 10° SE
NOSS 3-4 (C) 4.2 01:11:53 10° NNW 01:18:43 47° NE 01:26:32 10° SE
Cosmos 1992 Rocket 3.9 01:15:30 10° N 01:20:40 65° ENE 01:25:47 10° SSE
Resurs 1-3 3.9 01:20:17 10° SE 01:24:19 41° ENE 01:28:22 10° N
Cosmos 1269 Rocket 3.9 01:19:21 10° S 01:24:31 64° ESE 01:29:43 10° NNE
ATLAS CENTAUR R/B 2.3 01:21:32 10° SW 01:24:44 35° WNW 01:27:55 10° N
Cosmos 2278 Rocket 3.5 01:22:02 10° SSE 01:25:11 20° ESE 01:25:11 20° ESE
Cosmos 921 Rocket 4.4 01:32:10 10° SW 01:36:09 39° WNW 01:40:13 10° N
YAOGAN 1 2.4 01:32:24 10° SSE 01:36:35 65° ENE 01:40:49 10° N
Tsikada Rocket 4.0 01:31:10 10° N 01:37:36 85° E 01:43:58 10° S
CZ-4C R/B 4.1 01:35:10 10° W 01:37:52 16° NW 01:40:54 10° N
SL-12 R/B(2) 4.2 01:30:57 10° S 01:38:13 57° ESE 01:44:52 17° NE
OAO 2 Rocket 4.3 01:35:02 10° SW 01:39:33 31° SSE 01:40:43 28° SE
Orbus 21S 4.3 01:38:18 10° SW 01:40:10 13° SSW 01:41:25 10° S
USA 281 3.9 01:39:32 30° ENE 01:40:14 30° ENE 01:45:48 10° N
MOS 1 Rocket 4.0 01:40:02 10° S 01:44:08 48° W 01:48:16 10° NNW
CZ-2D R/B 4.2 01:48:50 10° S 01:52:41 50° W 01:56:39 10° NNW
BREEZE-M DEB (TANK) 4.5 01:51:24 10° NW 01:53:32 17° N 01:54:04 17° N
Tiangong 0.2 01:55:21 10° NW 01:56:42 18° NNW 01:56:42 18° NNW
SPOT 1/Viking Rocket 4.3 01:55:19 10° S 02:00:18 53° W 02:05:21 10° NNW
Cosmos 1943 Rocket 2.6 01:57:41 10° S 02:02:00 42° SE 02:02:00 42° SE
Timation 2 Rocket 4.1 02:01:20 10° S 02:08:01 66° ESE 02:09:56 47° NE
Cosmos 1513 Rocket 4.4 02:05:11 10° S 02:11:24 90° SSE 02:17:47 10° N
Cosmos 1140 Rocket 4.3 02:08:00 10° SW 02:13:02 48° WNW 02:16:51 17° N
Aureole 3 Rocket 4.4 02:10:48 10° SSW 02:12:54 27° SSW 02:12:54 27° SSW
Meteor 2-12 Rocket 4.4 02:15:13 10° N 02:21:21 81° W 02:27:24 10° S
Cosmos 1975 Rocket 4.1 02:22:07 10° NNW 02:26:12 43° W 02:30:19 10° SSW
Cosmos 1833 Rocket 3.2 02:22:00 10° NNW 02:26:07 49° N 02:26:07 49° N
Cosmos 2278 Rocket 3.9 03:04:19 10° SW 03:07:06 27° WSW 03:07:06 27° WSW
USA 281 4.4 03:26:26 36° WNW 03:26:26 36° WNW 03:30:42 10° NW
ACS3 Solar Sail 4.1 10:44:18 10° N 10:44:27 11° N 10:44:27 11° N
CZ-2C R/B 4.4 10:56:48 10° NNE 10:58:22 20° NNE 10:58:22 20° NNE
USA 234 4.3 10:59:36 10° E 11:05:31 38° NE 11:08:18 26° N
SL-16 R/B 3.8 11:07:26 10° S 11:10:12 28° S 11:10:12 28° S
Cosmos 1809 Rocket 4.3 11:09:49 10° S 11:15:55 86° E 11:22:02 10° N
Cosmos 2219 Rocket 4.3 11:23:45 13° N 11:23:45 13° N 11:24:24 10° N
Intercosmos 25 Rocket 4.0 11:22:45 65° S 11:23:30 87° E 11:30:36 10° N
UNK 3.8 11:23:48 10° SSE 11:27:44 67° SSE 11:27:44 67° SSE
COSMOS 2428 2.5 11:29:57 71° WSW 11:30:23 75° WNW 11:36:05 10° NNE
Cosmos 2100 Rocket 4.3 11:28:47 10° N 11:34:54 65° E 11:41:01 10° SSE
NOSS 3-1 (C) 4.2 11:36:52 27° N 11:36:52 27° N 11:39:44 10° NNE
NOSS 0 Rocket 4.0 11:28:56 10° SSW 11:35:03 75° ESE 11:41:11 10° NNE
Cosmos 2322 3.8 11:38:07 52° NW 11:38:07 52° NW 11:43:10 10° NNE
Cosmos 1703 Rocket 4.1 11:37:08 10° S 11:41:21 57° E 11:45:38 10° NNE
BlueWalker 3 4.1 11:42:58 15° NNE 11:43:53 16° NNE 11:46:14 10° ENE
Cosmos 921 Rocket 2.9 11:43:43 57° NNW 11:44:37 87° W 11:49:03 10° SSE
Cosmos 1939 Rocket 4.4 11:41:38 10° N 11:43:13 24° N 11:43:13 24° N
Cosmos 1980 4.0 11:43:57 10° S 11:49:31 67° ESE 11:55:08 10° NNE
FengYun 1-2 T 4.2 11:44:54 10° NNE 11:50:29 85° ESE 11:56:06 10° SSW
Meteor 2-21 4.3 11:45:19 10° SSW 11:51:22 66° W 11:57:25 10° N
